COSMOS 2499

Satellite information

Favourite Embed

Satellite Type and Status

PAYLOADIN ORBIT

Key statistics

Satellite COSMOS 2499 at a glance.

Uptime

4176

Days in orbit

Revolutions

≈ 12.8

Per day

Orbit

LEO

Low Earth Orbit

Inclination

82.5

Latest

Satellite identification and parameters

Extended collection of information and parameters for COSMOS 2499.

Object identification

Identified? True

Debris? False

Object name: COSMOS 2499

International designator: 2014-028E

Object number (NORAD): 39765

Object ID (CCSDS): 39765

Country: COMMONWEALTH OF INDEPENDENT STATES (CIS)

Current information (Y/N): Y

RCS size: MEDIUM

Orbital parameters

Period: 112.246 minutes

Inclination: 82.4516 deg

SMA: 7707.981 km

Apoapsis: 1508.468 km

Periapsis: 1151.224 km

RAAN: 49.1393 deg

Eccentricy: 0.02317364

Argument of periapsis: 186.6239 deg

Mean anomaly: 173.1787 deg

Mean motion: 12.82897168 rev/day

Mean motion (dot): 0.00000029 rev/day2

B* drag term: 0.000065456455 1/REarth

Two-line elements (TLE)

Creation date: Oct. 28, 2025, 2:18 a.m.

Reference frame: TEME

Reference center: EARTH

Epoch: Oct. 27, 2025, 10:51 p.m. UTC

TLE line 0: 0 COSMOS 2499

TLE line 1: 1 39765U 14028E 25300.95247123 .00000029 00000-0 65456-4 0 9999

TLE line 2: 2 39765 82.4516 49.1393 0231736 186.6239 173.1787 12.82897168535249

Live tracking on map

Real-time ground track for satellite COSMOS 2499.

In-orbit conjunctions

There are no conjunctions computed for COSMOS 2499, at the moment. Check back to stay up to date, as we update our databases every day.

Go to all conjunctions

Associated space launch

Classified payload for Russia

COSMOS 2499 was lifted into orbit during the mission ‘Rokot / Briz-KM | 3x Strela-3M (Kosmos 2496, Kosmos 2497, Kosmos 2498) & Kosmos 2499’, on board a Rokot/Briz-KM space rocket.

The launch took place on May 23, 2014, 5:27 a.m. from 133/3 (133L).

For more information about the launch, click the button.

Launch to space Rokot / Briz-KM | 3x Strela-3M (Kosmos 2496, Kosmos 2497, Kosmos 2498) & Kosmos 2499
Rokot / Briz-KM | 3x Strela-3M (Kosmos 2496, Kosmos 2497, Kosmos 2498) & Kosmos 2499

Agency: N/A

Status: Launch Successful

Launch date: May 23, 2014, 5:27 a.m. UTC

Rocket: Rokot/Briz-KM

Launch pad: 133/3 (133L)

Location: Plesetsk Cosmodrome, Russian Federation

...

Latest news about this satellite

There are no fresh news available about this satellite. Check back as we update our databases every day.


Newsletter sign-up

Weekly statistics, charts and insights to help you stay on top of the space industry.